Вернуться в каталог

KINEIS-5A

АктивенСвязьSSO
NORAD 62084·PAYLOAD·🇫🇷 France

Запущен Nov 25, 2024 с Rocket Lab Launch Complex 1

Loading…

Ближайшие Пролёты (ближайшие 24 часа)

TLE

СвежийSource: Space-Track

Эпоха: Sep 14, 2026, 22:13 UTC

1 62084U 24219D   26257.92633372 -.00002383  00000-0 -36981-3 0  9993
2 62084  97.9043  54.6431 0004999  35.6104 324.5436 14.72274212 96977

Отслеживайте KINEIS-5A в реальном времени с AllMySat

Download on the App Store